Wind_Speed
76 72 73 72 69 65 63 64 64 63 62 60 61 57 58 58 59 59 60 61 61 61 60 58 56 52 49 43 36 37 36 37 37 32 27 26 27 27 34 34 29 26 29 32 31
79 78 77 75 75 72 71 70 69 67 69 64 63 65 64 63 64 65 66 64 64 61 60 63 59 49 50 42 34 34 34 33 34 31 29 25 29 31 30 27 28 32 32 29 29
81 80 79 79 79 77 76 76 74 72 71 71 71 70 71 70 67 66 67 62 63 61 58 56 52 44 40 36 35 34 32 31 32 29 28 28 33 31 31 31 33 38 34 31 30
78 80 78 75 76 75 74 71 71 71 72 71 71 72 76 73 72 70 66 63 57 53 51 48 45 37 37 36 34 35 34 31 31 32 28 30 31 29 31 32 36 37 36 34 29
77 76 75 73 72 72 73 73 70 68 69 71 68 68 69 67 67 67 64 61 56 53 50 44 42 39 38 35 38 37 34 34 32 32 31 29 31 33 34 35 35 36 35 33 32
75 75 73 73 73 71 70 70 70 71 70 69 67 66 66 65 64 62 60 59 58 55 50 47 44 40 40 38 39 38 35 34 31 34 31 30 31 32 36 36 37 38 34 33 29
73 70 70 70 68 69 68 69 68 67 67 66 65 63 66 66 63 61 59 58 54 54 52 47 44 42 41 40 39 39 36 35 32 34 32 32 31 33 36 38 38 37 34 34 32
62 60 59 60 60 62 61 61 62 61 59 58 57 57 59 55 56 55 55 51 48 48 47 46 45 43 44 42 39 38 36 35 31 32 34 31 28 31 31 32 34 34 34 36 36
52 52 53 55 54 55 55 54 53 53 50 48 48 48 50 47 46 48 45 43 42 43 44 42 43 41 43 41 39 37 38 35 33 32 31 31 30 28 29 28 28 28 31 33 33
52 52 53 55 56 57 55 54 52 51 47 46 46 45 43 43 44 44 42 39 39 40 40 38 38 39 35 30 32 35 32 32 33 30 29 28 29 29 30 27 26 22 22 20 20
52 53 54 54 54 54 53 54 53 52 52 48 48 46 46 49 45 42 43 38 38 39 35 30 32 34 21 24 31 31 30 27 26 27 29 29 27 25 22 21 19 20 19 19 17
49 51 51 51 53 53 50 49 50 49 49 48 48 47 49 49 45 47 46 41 38 36 37 36 37 30 27 31 33 33 32 24 23 25 28 31 25 15 17 18 20 22 20 19 13
49 49 48 50 50 48 46 47 45 47 48 48 50 50 50 48 48 52 49 43 43 38 47 39 35 31 35 35 30 35 34 26 24 27 27 26 20 18 13 16 22 20 17 18 15
48 47 47 46 45 42 43 43 43 42 43 45 48 53 52 55 53 54 50 44 45 53 47 36 36 37 40 38 35 38 32 29 27 25 25 19 23 18 16 16 20 17 19 18 16
45 45 44 42 40 40 42 42 39 38 39 49 47 50 53 54 56 56 50 48 47 53 44 39 39 40 41 36 35 37 32 32 28 24 24 17 21 22 18 14 11 15 16 16 17
44 43 42 41 39 39 39 37 38 39 38 40 42 50 51 55 55 52 50 43 41 44 44 44 42 38 40 36 38 35 33 33 28 25 24 20 20 21 17 13 10 12 13 12 19
45 42 40 37 34 37 37 33 34 37 44 45 43 52 55 56 54 57 48 44 47 49 46 48 40 43 41 40 41 40 35 32 30 27 26 21 23 22 19 17 16 12 9 6 12
49 47 43 42 39 36 33 31 33 40 48 49 49 52 54 55 55 58 53 46 51 52 47 44 43 46 45 44 42 41 36 34 32 28 27 24 24 20 22 17 15 17 12 3 12
52 48 47 44 40 37 35 33 36 44 53 42 41 45 53 54 55 55 55 54 53 53 51 52 55 49 44 46 44 40 36 32 32 30 29 28 25 25 22 20 18 16 11 5 13
53 53 51 49 42 39 37 38 42 47 47 42 41 44 50 54 55 53 56 53 55 55 57 54 52 51 51 46 41 38 36 33 34 32 29 32 26 24 23 18 19 18 15 11 16
52 51 51 46 42 40 42 41 44 45 42 42 40 41 46 46 46 47 51 59 59 55 54 53 48 49 43 41 42 38 37 36 32 32 31 31 26 20 25 18 22 20 10 12 13
56 54 51 49 45 45 44 43 46 43 38 43 41 41 42 42 41 45 47 47 48 52 53 52 49 42 39 42 39 39 39 35 32 32 28 28 25 24 24 19 19 14 13 16 9
60 56 54 50 47 45 42 44 39 31 30 37 36 30 42 43 44 44 50 48 47 48 47 46 41 39 38 38 41 41 39 34 35 34 33 30 27 27 25 21 14 12 15 18 18
68 58 53 53 50 49 45 48 45 40 38 37 36 34 39 41 49 50 46 46 45 44 44 45 39 39 38 41 41 38 37 38 38 37 38 36 27 26 26 23 22 15 19 21 18
71 65 62 58 56 54 52 56 56 48 43 41 38 40 40 43 44 44 42 40 42 41 38 37 36 37 41 41 40 40 43 41 38 38 39 39 30 27 28 28 25 27 21 25 25
76 73 69 64 61 60 59 59 62 53 45 43 38 36 43 43 45 34 35 33 34 37 33 34 34 41 44 47 45 44 45 40 42 42 34 33 34 29 24 27 28 28 26 27 23
79 78 75 69 65 65 60 59 65 59 49 47 43 33 38 41 43 51 39 37 36 37 36 40 42 46 49 51 49 41 38 41 40 36 32 30 28 23 24 27 27 19 24 26 10
Wind_Direction
253 255 258 259 259 258 260 260 264 264 267 269 271 273 277 278 280 280 285 287 289 290 291 293 294 299 299 293 289 289 288 292 293 298 303 292 282 281 288 285 295 304 306 297 295
253 255 258 261 261 261 261 262 266 266 264 264 271 271 273 277 278 276 282 285 287 287 289 289 291 291 293 286 282 284 286 290 293 298 302 290 274 277 284 286 286 294 297 289 289
253 256 258 260 261 262 263 265 265 267 267 266 269 269 273 274 275 276 278 282 284 283 282 283 285 286 282 277 277 277 280 283 288 290 291 288 283 293 299 299 293 303 301 299 296
253 257 258 258 259 259 261 262 262 265 266 266 267 269 270 270 271 274 274 277 276 276 276 276 280 273 271 271 273 274 275 276 281 283 288 288 293 296 297 295 294 299 299 300 297
252 254 255 257 256 257 258 259 261 262 262 265 266 266 266 265 267 268 269 272 272 272 273 274 271 272 272 269 271 273 274 278 279 282 289 290 291 294 296 296 299 299 301 304 306
254 256 255 256 257 256 258 259 261 262 262 263 264 264 263 264 264 264 266 266 265 268 269 268 270 266 266 268 269 270 273 278 281 283 288 290 292 292 293 295 294 296 298 300 298
253 253 255 256 256 257 258 258 260 260 261 261 260 259 258 260 261 261 262 261 260 262 262 262 261 262 262 262 266 270 274 277 284 287 289 287 289 286 289 291 293 296 299 297 301
246 248 249 251 253 255 256 256 257 258 258 257 256 255 255 255 255 255 255 253 253 255 257 257 261 260 261 263 261 265 270 275 277 282 289 290 293 291 289 292 295 299 302 303 308
243 246 248 249 251 252 253 253 254 256 255 252 252 249 249 251 249 250 249 250 249 250 251 255 259 260 261 264 265 267 271 275 278 287 290 295 291 287 288 291 293 298 302 302 301
248 248 250 250 252 253 253 254 252 252 249 247 244 242 242 241 241 243 245 244 242 241 245 254 257 258 262 273 267 267 273 278 280 280 287 291 290 293 296 300 304 302 293 289 291
247 249 250 252 252 253 253 252 250 246 246 244 242 239 239 238 233 237 242 242 239 242 249 251 247 254 267 252 263 272 277 279 277 277 281 280 281 288 295 301 301 296 282 292 303
249 251 252 253 254 253 251 248 245 246 244 241 241 238 235 232 230 225 234 241 244 243 244 245 247 256 254 251 266 279 282 271 272 278 281 282 282 283 297 295 294 296 309 307 317
250 251 253 255 251 250 250 248 246 245 243 239 238 236 234 230 228 227 231 233 241 239 241 254 242 243 247 254 269 275 278 272 267 274 277 280 284 289 286 298 298 310 315 308 307
248 248 249 248 248 247 242 242 242 244 243 239 234 232 228 223 223 222 223 229 230 240 242 245 243 238 245 260 266 270 270 264 266 276 279 285 288 290 301 323 311 308 294 304 309
243 245 244 245 244 243 240 241 246 246 245 242 235 234 228 225 226 222 224 223 233 238 237 236 244 253 254 253 258 268 263 261 267 270 276 276 286 299 311 337 298 291 287 312 332
238 240 242 242 242 238 235 237 241 241 240 242 231 228 221 222 222 219 218 220 228 227 233 233 241 246 247 250 261 266 264 262 266 267 271 278 281 291 306 297 294 278 291 319 311
235 236 235 234 233 233 238 240 243 243 239 236 229 222 219 219 217 213 216 221 227 229 232 234 236 234 243 254 258 262 264 263 261 264 270 277 282 292 296 304 309 291 292 1 4
232 232 235 234 236 237 240 245 247 238 233 230 230 225 221 219 215 216 220 223 227 232 233 238 237 240 243 251 255 264 260 257 261 264 267 269 276 287 297 298 299 298 328 83 33
230 233 234 232 237 238 240 248 240 229 233 232 235 229 220 220 219 218 219 221 227 232 230 233 237 248 250 258 262 259 252 256 259 262 264 268 269 269 276 294 306 296 279 203 306
234 233 234 234 238 239 239 247 235 232 232 231 226 219 221 217 220 213 215 222 229 228 230 235 240 243 251 254 252 251 253 254 256 261 264 266 268 273 277 284 281 272 266 275 271
237 234 233 231 232 236 239 241 232 228 227 226 219 211 219 224 225 220 219 227 230 229 234 236 242 246 245 249 249 249 252 256 257 259 263 271 273 267 266 285 276 280 286 328 291
237 234 231 229 230 234 234 237 229 226 223 221 218 210 211 222 221 225 224 227 232 234 237 238 240 239 243 245 251 251 255 251 256 260 261 266 280 274 274 284 289 272 255 249 302
229 230 231 229 231 234 232 229 219 211 208 217 218 226 218 212 229 222 222 221 227 233 236 237 236 239 242 247 250 254 255 257 257 260 265 266 267 270 270 282 258 249 222 218 268
234 229 228 231 228 231 228 218 214 220 221 225 240 242 231 225 224 229 223 224 231 235 239 242 236 239 241 245 248 252 257 256 258 261 266 268 265 263 261 254 219 216 205 235 225
230 230 229 224 223 223 223 221 223 213 228 234 242 235 225 225 223 227 231 231 234 238 238 239 236 236 240 245 250 254 258 262 263 263 266 269 266 256 252 241 224 227 238 234 237
226 228 228 225 222 221 221 219 222 214 224 235 236 243 221 229 231 230 227 219 218 225 229 232 236 240 246 250 250 252 259 263 262 258 265 264 260 252 243 227 224 225 240 223 235
222 226 228 225 225 221 223 226 220 216 225 232 231 229 234 231 232 234 233 213 216 223 230 237 239 243 249 254 256 255 254 253 259 261 253 246 254 251 220 217 221 224 220 232 248
Height
10947 10951 10956 10960 10964 10968 10971 10974 10977 10980 10983 10986 10988 10991 10993 10994 10994 10994 10995 10995 10995 10996 10996 10995 10997 10999 10996 10996 10994 10990 10987 10989 10995 10998 10997 10994 10994 10996 10994 10992 10991 10990 10990 10986 10983
10935 10940 10945 10949 10953 10957 10961 10964 10966 10970 10974 10979 10981 10983 10985 10985 10985 10987 10987 10987 10987 10988 10987 10989 10991 10993 10991 10992 10990 10987 10984 10983 10987 10993 10990 10989 10988 10991 10989 10987 10987 10984 10983 10982 10979
10921 10926 10931 10937 10941 10946 10950 10953 10956 10959 10963 10967 10972 10974 10975 10977 10977 10978 10979 10980 10980 10981 10981 10982 10984 10986 10984 10983 10984 10981 10981 10980 10983 10985 10987 10985 10981 10985 10982 10981 10979 10977 10975 10976 10975
10907 10912 10917 10923 10929 10933 10936 10940 10944 10947 10951 10955 10959 10962 10963 10965 10967 10968 10970 10972 10972 10974 10974 10976 10978 10978 10977 10976 10978 10976 10976 10976 10979 10977 10983 10980 10976 10978 10978 10977 10975 10973 10970 10968 10968
10894 10899 10904 10909 10914 10919 10924 10928 10931 10935 10938 10942 10946 10949 10950 10952 10954 10957 10960 10962 10963 10964 10967 10969 10967 10970 10969 10971 10969 10969 10969 10970 10973 10972 10976 10977 10973 10969 10971 10971 10969 10967 10965 10962 10958
10880 10885 10890 10895 10900 10905 10909 10913 10918 10923 10926 10929 10935 10938 10937 10941 10944 10947 10949 10951 10954 10956 10960 10958 10961 10963 10963 10962 10962 10963 10965 10966 10967 10964 10971 10973 10971 10969 10965 10966 10964 10961 10959 10957 10955
10866 10871 10876 10880 10885 10890 10895 10900 10904 10908 10914 10917 10921 10925 10923 10929 10933 10935 10938 10941 10943 10946 10949 10952 10952 10955 10956 10957 10957 10957 10959 10960 10961 10959 10964 10965 10968 10967 10963 10960 10956 10955 10953 10951 10949
10854 10858 10864 10867 10871 10877 10880 10885 10890 10896 10901 10905 10909 10911 10910 10920 10920 10924 10927 10931 10934 10937 10940 10942 10944 10946 10946 10950 10952 10954 10955 10956 10957 10955 10954 10959 10962 10959 10958 10955 10952 10948 10946 10943 10940
10843 10847 10852 10856 10860 10864 10869 10874 10880 10886 10890 10894 10897 10900 10900 10909 10910 10913 10917 10922 10925 10928 10930 10932 10935 10936 10938 10942 10945 10946 10950 10950 10951 10951 10950 10949 10952 10956 10951 10950 10950 10945 10941 10938 10936
10833 10837 10841 10845 10849 10853 10859 10864 10870 10873 10878 10883 10889 10891 10895 10897 10900 10905 10909 10913 10917 10920 10923 10926 10927 10927 10932 10938 10936 10937 10943 10944 10943 10946 10946 10944 10943 10942 10942 10943 10942 10941 10938 10935 10933
10822 10826 10830 10835 10838 10842 10849 10852 10857 10860 10866 10874 10877 10882 10886 10885 10893 10897 10902 10906 10909 10913 10918 10922 10921 10920 10932 10931 10928 10933 10936 10938 10938 10938 10940 10941 10942 10939 10940 10938 10937 10934 10932 10930 10928
10812 10816 10819 10823 10826 10830 10836 10839 10843 10850 10857 10863 10867 10872 10874 10876 10885 10889 10894 10899 10903 10908 10912 10913 10915 10922 10927 10924 10926 10927 10930 10934 10934 10931 10934 10935 10938 10941 10938 10935 10930 10927 10925 10923 10922
10801 10805 10808 10811 10815 10822 10828 10828 10835 10838 10844 10849 10853 10861 10863 10871 10876 10880 10885 10892 10897 10900 10903 10909 10912 10917 10917 10919 10922 10924 10925 10928 10927 10926 10930 10930 10933 10935 10938 10934 10927 10923 10920 10918 10917
10791 10794 10798 10801 10806 10812 10816 10817 10824 10828 10833 10836 10842 10844 10852 10856 10861 10869 10875 10883 10887 10892 10898 10904 10907 10909 10909 10914 10916 10919 10921 10920 10921 10922 10924 10927 10924 10929 10931 10928 10921 10916 10913 10912 10910
10780 10784 10788 10792 10798 10803 10804 10808 10816 10817 10823 10821 10831 10833 10840 10849 10852 10859 10868 10874 10877 10884 10894 10897 10900 10903 10906 10909 10911 10913 10914 10912 10916 10917 10920 10923 10921 10922 10924 10924 10917 10913 10908 10905 10903
10770 10774 10778 10783 10789 10791 10793 10801 10805 10808 10811 10814 10821 10821 10830 10833 10843 10851 10858 10864 10872 10879 10882 10888 10893 10897 10897 10902 10905 10908 10907 10907 10910 10911 10913 10916 10918 10916 10918 10918 10915 10912 10905 10902 10904
10759 10764 10769 10775 10780 10783 10787 10794 10798 10801 10798 10801 10804 10808 10814 10821 10832 10843 10849 10856 10862 10867 10870 10877 10885 10888 10889 10895 10898 10900 10901 10901 10903 10906 10907 10911 10910 10909 10911 10909 10907 10906 10903 10902 10902
10749 10754 10760 10767 10770 10776 10781 10785 10789 10786 10781 10786 10791 10798 10809 10813 10823 10832 10840 10846 10852 10858 10864 10872 10878 10876 10883 10887 10891 10892 10894 10894 10896 10901 10901 10904 10904 10904 10901 10900 10902 10900 10898 10896 10900
10738 10744 10751 10756 10762 10768 10772 10775 10776 10769 10766 10785 10792 10796 10799 10806 10814 10824 10833 10837 10842 10850 10857 10861 10866 10871 10878 10878 10883 10883 10885 10890 10890 10893 10895 10894 10896 10895 10894 10898 10898 10893 10888 10889 10893
10726 10733 10738 10747 10754 10758 10763 10764 10761 10759 10766 10776 10780 10787 10790 10796 10803 10816 10824 10827 10833 10842 10846 10853 10859 10865 10868 10873 10874 10876 10878 10882 10882 10885 10887 10884 10889 10889 10889 10890 10889 10888 10888 10889 10884
10715 10721 10730 10737 10743 10747 10749 10750 10750 10752 10761 10767 10774 10781 10786 10794 10803 10812 10819 10818 10825 10835 10840 10846 10853 10857 10864 10864 10864 10869 10871 10873 10877 10878 10878 10877 10880 10884 10882 10884 10881 10881 10883 10883 10880
10702 10709 10718 10725 10731 10733 10738 10741 10743 10748 10756 10760 10767 10773 10780 10787 10794 10802 10809 10813 10819 10826 10833 10838 10843 10850 10855 10853 10857 10860 10861 10866 10869 10870 10873 10872 10876 10876 10876 10878 10879 10878 10879 10878 10875
10687 10697 10707 10715 10720 10724 10732 10736 10740 10746 10752 10755 10761 10769 10776 10781 10784 10793 10796 10806 10811 10817 10824 10829 10838 10842 10846 10848 10848 10851 10854 10860 10861 10863 10864 10866 10870 10869 10869 10871 10872 10870 10869 10868 10869
10673 10688 10698 10704 10710 10714 10722 10727 10730 10738 10743 10746 10752 10758 10766 10772 10778 10783 10792 10800 10805 10811 10816 10819 10829 10833 10836 10836 10841 10844 10847 10850 10853 10855 10854 10853 10860 10862 10860 10859 10862 10863 10863 10864 10867
10660 10672 10678 10686 10693 10699 10707 10714 10721 10730 10735 10739 10744 10750 10757 10764 10771 10778 10786 10793 10798 10803 10808 10813 10819 10824 10825 10828 10833 10836 10838 10840 10843 10844 10845 10841 10847 10850 10850 10851 10858 10865 10866 10867 10868
10640 10649 10659 10671 10680 10687 10689 10695 10706 10718 10728 10731 10737 10744 10753 10759 10766 10771 10778 10785 10791 10796 10801 10806 10810 10812 10814 10816 10821 10826 10827 10830 10827 10828 10835 10834 10832 10838 10844 10847 10849 10852 10853 10860 10864
10618 10632 10642 10658 10667 10673 10683 10691 10700 10712 10719 10724 10730 10741 10745 10751 10757 10763 10772 10777 10782 10787 10793 10796 10799 10802 10804 10805 10812 10818 10816 10813 10819 10825 10824 10825 10824 10828 10832 10832 10834 10841 10850 10853 10856